FENGYUN 1C DEB

Satellite information

Favourite Embed

Satellite Type and Status

DEBRISIN ORBIT

Key statistics

Satellite FENGYUN 1C DEB at a glance.

Uptime

9613

Days in orbit

Revolutions

≈ 14.2

Per day

Orbit

SSO

Sun Synchronous Orbit

Inclination

98.8

Latest

Satellite identification and parameters

Extended collection of information and parameters for FENGYUN 1C DEB.

Object identification

Identified? True

Debris? True

Object name: FENGYUN 1C DEB

International designator: 1999-025DRZ

Object number (NORAD): 36152

Object ID (CCSDS): 36152

Country: PEOPLES REPUBLIC OF CHINA (PRC)

Current information (Y/N): Y

RCS size: SMALL

Orbital parameters

Period: 101.651 minutes

Inclination: 98.7647 deg

SMA: 7214.953 km

Apoapsis: 877.91 km

Periapsis: 795.726 km

RAAN: 284.195 deg

Eccentricy: 0.00569537

Argument of periapsis: 149.5037 deg

Mean anomaly: 210.947 deg

Mean motion: 14.16617108 rev/day

Mean motion (dot): 0.00002622 rev/day2

B* drag term: 0.0013145342 1/REarth

Two-line elements (TLE)

Creation date: Aug. 31, 2025, 2:26 a.m.

Reference frame: TEME

Reference center: EARTH

Epoch: Aug. 30, 2025, 7:50 p.m. UTC

TLE line 0: 0 FENGYUN 1C DEB

TLE line 1: 1 36152U 99025DRZ 25242.82707504 .00002622 00000-0 13145-2 0 9998

TLE line 2: 2 36152 98.7647 284.1950 0056954 149.5037 210.9470 14.16617108626852

Live tracking on map

Real-time ground track for satellite FENGYUN 1C DEB.

In-orbit conjunctions

A list of the most updated potential collisions computed for object FENGYUN 1C DEB.

Target Orbit TCA Probability of collision Miss distance Type
DELTA 1 R/B(1) LEO 2025-05-02 05:54:59 0.000157874 627.0 (m) ROCKET BODY
METEOR 2-17 DEB LEO 2024-11-13 20:39:40 0.0002387915 206.0 (m) DEBRIS
METEOR 2-8 DEB LEO 2024-07-03 23:07:54 0.0001334058 77.0 (m) DEBRIS

Associated space launch

Chinese polar orbiting meteorological satellite

FENGYUN 1C DEB was lifted into orbit during the mission ‘Long March 4B | Feng Yun 1C’, on board a Long March 4B space rocket.

The launch took place on May 10, 1999, 1:33 a.m. from Launch Complex 7.

For more information about the launch, click the button.

Launch to space Long March 4B | Feng Yun 1C
Long March 4B | Feng Yun 1C

Agency: N/A

Status: Launch Successful

Launch date: May 10, 1999, 1:33 a.m. UTC

Rocket: Long March 4B

Launch pad: Launch Complex 7

Location: Taiyuan Satellite Launch Center, People's Republic of China

...

Latest news about this satellite

There are no fresh news available about this satellite. Check back as we update our databases every day.


Newsletter sign-up

Weekly statistics, charts and insights to help you stay on top of the space industry.